Flag for Germany Weather past 2 weeks in Hoyerswerda, Saxony, Germany

Now
66 °F

Overcast.


Feels Like: 66 °F
Forecast: 52 / 74 °F
Wind: 3 mph from Southwest

Location: Cottbus

Current Time: Apr 26, 2015 at 2:06:12 PM

Latest Report: Apr 26, 2015 at 1:00 PM


Visibility: 25 mi

Pressure: 29.75 "Hg

Humidity: 50%

Dew point: 47 °F

Location of HoyerswerdaLocation

Historic Weather in Hoyerswerda — Graph

°F

Hoyerswerda temperature yesterday

Maximum temperature yesterday: 73 °F (at 3:00 PM)
Minimum temperature yesterday: 46 °F (at 1:00 AM)
Average temperature yesterday: 61 °F

Past Weeks' High & Low Weather Summary

 TemperatureHumidityPressure
High73 °F (Apr 25, 3:00 PM)100% (Apr 23, 6:00 AM)30.45 "Hg (Apr 23, 6:00 AM)
Low28 °F (Apr 19, 6:00 AM)19% (Apr 21, 2:00 PM)29.72 "Hg (Apr 25, 5:00 PM)
Average52 °F60%30.11 "Hg
* Reported Apr 11 1:00 PM — Apr 26 1:00 PM, Hoyerswerda, Weather by CustomWeather, © 2015

Note: Actual official high and low records may vary slightly from our data, if they occured in-between our weather recording intervals... More about our weather records

Advertising

Hoyerswerda weather history for previous 24 hours

 ConditionsComfort  
Time TempWeatherWind HumidityBarometerVisibility
1:00 PM
Sun, Apr 26
66 °FOvercast.3 mph50%29.75 "Hg25 mi
12:00 PM65 °FOvercast.3 mph55%29.77 "Hg19 mi
11:00 AM63 °FOvercast.2 mph58%29.78 "Hg14 mi
10:00 AM61 °FPartly sunny.2 mph67%29.79 "Hg7 mi
9:00 AM59 °FOvercast.2 mph73%29.79 "Hg7 mi
8:00 AM57 °FOvercast.3 mph80%29.79 "Hg11 mi
7:00 AM55 °FOvercast.2 mph85%29.79 "Hg11 mi
6:00 AM54 °FPassing clouds.2 mph86%29.78 "Hg12 mi
5:00 AM57 °FOvercast.3 mph79%29.77 "Hg15 mi
4:00 AM58 °FOvercast.3 mph76%29.77 "Hg19 mi
3:00 AM58 °FOvercast.3 mph70%29.76 "Hg19 mi
2:00 AM58 °FOvercast.2 mph68%29.76 "Hg19 mi
1:00 AM59 °FOvercast.2 mph65%29.77 "Hg22 mi
12:00 AM58 °FOvercast.2 mph61%29.76 "Hg19 mi
11:00 PM
Sat, Apr 25
59 °FOvercast.2 mph59%29.76 "Hg22 mi
10:00 PM60 °FOvercast.3 mph56%29.76 "Hg31 mi
9:00 PM63 °FOvercast.3 mph49%29.76 "Hg28 mi
8:00 PM65 °FOvercast.3 mph44%29.74 "Hg37 mi
7:00 PM67 °FLight rain. Overcast.6 mph40%29.75 "Hg31 mi
6:00 PM70 °FOvercast.6 mph31%29.73 "Hg25 mi
5:00 PM71 °FOvercast.6 mph28%29.72 "Hg19 mi
4:00 PM73 °FOvercast.3 mph28%29.73 "Hg16 mi
3:00 PM73 °FOvercast.3 mph26%29.76 "Hg22 mi
2:00 PM73 °FOvercast.6 mph27%29.78 "Hg16 mi
Weather by CustomWeather, © 2015

See weather overviewHow to use our weather pages